DELTA 1 DEB, 42640

Orbit data source: Space-Track

DELTA 1 DEB, 42640 is space debris in SSO originally from a launch on Thu, 12 Jun 1975 UTC launched from the Air Force Western Test Range (AFWTR). Debris objects in space refer to the collection of defunct objects orbiting the Earth. Examples of debris include non-operational satellites, rocket bodies, and fragments generated from explosions, collisions, or faulty payload assembly.

Loading next visibility...
Identifier
42640, 1975-052LZ
Orbit
SSO
Country
Flag of USUS
Related business
Manufacturer
Unknown
Mission
Spacecraft
Bus & Motor
Unknown
Mass
Unknown
Launch date (UTC)
1975-06-12 (51 years ago)
Launch vehicle
Unknown
Launch site
Air Force Western Test Range (AFWTR)
Object type
Payload
Rocket body
Debris
Shape & HBR
Unknown shape, 0.1 m
Radar Cross Section
Small (<0.1 m²)

Expand to show TLE details & history
Last TLE update: 5 days ago

TLE from 5 days ago
0 DELTA 1 DEB
1 42640U 75052LZ  26168.23448926  .00000305  00000-0  50974-3 0  9992
2 42640  99.8164 337.4760 0216886  68.9986 103.3542 13.45310036616054
Epoch: 2026-06-17T05:37Z
TLE epoch observation values (Epoch: 2026-06-17T05:37:39.872Z)
Latitude
5.08679°
Longitude
168.44277°
Altitude
1,132.542 km
Speed
7.267 km/s
True Right ascension
10h 33m 24s
True Declination
5° 03' 29"
Sunlit
Object was in daylight at epoch
Visualization orbit readout
Latitude
Unknown
Longitude
Unknown
Altitude
Unknown
Speed
Unknown
Apparent Right ascension
Unknown
Apparent Declination
Unknown
Sunlit
N/A
Visualization observer readout
Local Sidereal Time
19:05:51
Azimuth
Unknown
Elevation
Unknown
Doppler factor
Unknown
Orbital elements
Apogee altitude
1,248.781 km
Perigee altitude
924.97 km
Semi-major axis
7,465.013 km
Eccentricity
0.02169
Inclination
99.8164°
RAAN
337.476°
Arg. of periapsis
68.9986°
True anomaly
105.75657°
Mean anomaly
103.3542°
Eccentric anomaly
104.55697°
Mean motion
3.3651 °/min
Orbital period
106.98 mins
BSTAR
0.00050974
Loading maneuver chart data...
Computing Atmospheric mass density...
Loading historical data...
Loading historical data...
Loading historical data...
Loading historical data...
Loading historical data...
Loading historical data...
Loading historical data...

Documentation

Showing up to 5 results
|